DW7603 Weather Reports


time (UTC)temp
C
wind
direction
speed
KPH
gust
KPH
rain 1hr
cm
rain 24hr
cm
rain mn
cm
humidity
%
barometer
mb
20260906231552 33 298 4.8 14.5 0.00 0.00 0.00 15 1001.8
20260906230043 33 80 0.0 4.8 0.00 0.00 0.00 16 1001.8
20260906224517 33 282 6.4 17.7 0.00 0.00 0.00 15 1001.9
20260906223058 33 290 8.0 22.5 0.00 0.00 0.00 16 1001.8
20260906221556 34 280 11.3 24.1 0.00 0.00 0.00 15 1001.9
20260906220025 34 45 3.2 14.5 0.00 0.00 0.00 15 1002.3
20260906214558 35 154 0.0 17.7 0.00 0.00 0.00 15 1002.8
20260906213034 34 190 3.2 22.5 0.00 0.00 0.00 15 1002.8
20260906211515 35 271 0.0 17.7 0.00 0.00 0.00 14 1003.4
20260906210055 35 199 1.6 14.5 0.00 0.00 0.00 14 1003.4
20260906204536 34 270 8.0 17.7 0.00 0.00 0.00 15 1003.9
20260906203030 33 138 1.6 14.5 0.00 0.00 0.00 15 1004.0
20260906201608 34 155 4.8 19.3 0.00 0.00 0.00 15 1004.3
20260906200037 35 78 4.8 12.9 0.00 0.00 0.00 14 1004.2
20260906194518 35 164 3.2 11.3 0.00 0.00 0.00 15 1004.5
20260906193100 35 294 8.0 12.9 0.00 0.00 0.00 14 1004.7
20260906193003 35 255 3.2 12.9 0.00 0.00 0.00 15 1004.6
20260906191536 34 118 3.2 11.3 0.00 0.00 0.00 15 1005.1
20260906190015 35 308 1.6 8.0 0.00 0.00 0.00 15 1005.4
20260906184550 33 331 6.4 14.5 0.00 0.00 0.00 15 1005.6
20260906183045 33 92 1.6 11.3 0.00 0.00 0.00 16 1005.9
20260906181516 32 124 1.6 8.0 0.00 0.00 0.00 17 1006.0
20260906180111 32 190 3.2 9.7 0.00 0.00 0.00 17 1006.5
20260906174531 32 107 4.8 11.3 0.00 0.00 0.00 18 1006.4
20260906173010 32 127 0.0 12.9 0.00 0.00 0.00 18 1006.8
20260906171545 31 175 1.6 11.3 0.00 0.00 0.00 21 1007.0
20260906170034 30 182 3.2 12.9 0.00 0.00 0.00 23 1006.9
20260906164503 28 129 3.2 14.5 0.00 0.00 0.00 25 1007.4
20260906163044 28 102 4.8 20.9 0.00 0.00 0.00 26 1007.3
20260906161518 27 114 3.2 16.1 0.00 0.00 0.00 27 1007.3
20260906160055 26 112 6.4 16.1 0.00 0.00 0.00 29 1007.3
20260906154533 25 85 8.0 19.3 0.00 0.00 0.00 28 1007.2
20260906153013 25 48 11.3 22.5 0.00 0.00 0.00 28 1007.3
20260906151547 24 105 9.7 20.9 0.00 0.00 0.00 29 1007.3
20260906150037 23 78 8.0 19.3 0.00 0.00 0.00 31 1007.5
20260906144519 22 65 9.7 17.7 0.00 0.00 0.00 32 1007.4
20260906143055 22 57 8.0 16.1 0.00 0.00 0.00 32 1007.2
20260906141536 22 59 4.8 17.7 0.00 0.00 0.00 33 1007.2
20260906140020 22 52 4.8 19.3 0.00 0.00 0.00 32 1007.1
20260906134556 21 54 9.7 19.3 0.00 0.00 0.00 33 1006.9
20260906133031 21 68 12.9 22.5 0.00 0.00 0.00 33 1006.8
20260906131515 21 20 11.3 20.9 0.00 0.00 0.00 32 1006.8
20260906130059 21 90 6.4 14.5 0.00 0.00 0.00 33 1006.7
20260906130000 21 36 6.4 14.5 0.00 0.00 0.00 33 1006.7
20260906124536 20 65 8.0 14.5 0.00 0.00 0.00 33 1006.5
20260906123029 21 47 9.7 19.3 0.00 0.00 0.00 33 1006.6
20260906121606 21 58 11.3 20.9 0.00 0.00 0.00 32 1006.5
20260906121504 21 53 12.9 20.9 0.00 0.00 0.00 32 1006.6
20260906120045 21 84 8.0 16.1 0.00 0.00 0.00 32 1006.5
20260906114530 20 79 6.4 16.1 0.00 0.00 0.00 34 1006.4
20260906113019 21 15 4.8 9.7 0.00 0.00 0.00 32 1006.4
20260906111541 21 64 4.8 9.7 0.00 0.00 0.00 33 1006.4
20260906110025 21 62 6.4 9.7 0.00 0.00 0.00 33 1006.2
20260906104510 22 61 4.8 9.7 0.00 0.00 0.00 33 1006.3
20260906103043 22 27 4.8 8.0 0.00 0.00 0.00 33 1006.3
20260906101525 22 43 3.2 8.0 0.00 0.00 0.00 34 1006.1
20260906100059 22 104 1.6 8.0 0.00 0.00 0.00 33 1006.3
20260906100002 22 81 3.2 8.0 0.00 0.00 0.00 33 1006.2
20260906094544 22 23 6.4 9.7 0.00 0.00 0.00 33 1006.2
20260906093022 22 22 6.4 12.9 0.00 0.00 0.00 33 1006.1
20260906091518 22 5 8.0 16.1 0.00 0.00 0.00 33 1006.1
20260906090056 22 36 6.4 12.9 0.00 0.00 0.00 32 1006.1
20260906084525 23 43 4.8 12.9 0.00 0.00 0.00 32 1006.2
20260906083013 23 25 4.8 9.7 0.00 0.00 0.00 32 1006.4
20260906081550 23 44 3.2 9.7 0.00 0.00 0.00 31 1006.4
20260906080031 23 44 4.8 9.7 0.00 0.00 0.00 32 1006.5
20260906074512 23 28 4.8 9.7 0.00 0.00 0.00 32 1006.7
20260906073046 23 26 0.0 4.8 0.00 0.00 0.00 32 1006.8
20260906071538 23 104 4.8 12.9 0.00 0.00 0.00 32 1006.9
20260906070012 23 107 3.2 16.1 0.00 0.00 0.00 32 1006.8
20260906064552 24 111 4.8 16.1 0.00 0.00 0.00 30 1006.6
20260906063033 24 19 11.3 22.5 0.00 0.00 0.00 30 1006.3
20260906061515 24 319 12.9 25.7 0.00 0.00 0.00 30 1006.1
20260906060057 24 15 11.3 22.5 0.00 0.00 0.00 30 1006.2
20260906054535 24 13 12.9 22.5 0.00 0.00 0.00 30 1006.1
20260906053022 24 48 16.1 22.5 0.00 0.00 0.00 30 1006.2
20260906051601 24 5 11.3 17.7 0.00 0.00 0.00 31 1006.1
20260906050044 24 349 12.9 19.3 0.00 0.00 0.00 31 1006.1
20260906044531 24 26 11.3 17.7 0.00 0.00 0.00 31 1006.2
20260906043054 25 24 11.3 19.3 0.00 0.00 0.00 31 1006.3
20260906041536 25 41 11.3 17.7 0.00 0.00 0.00 31 1006.2
20260906040023 25 327 8.0 14.5 0.00 0.00 0.00 30 1006.4
20260906034553 25 66 11.3 22.5 0.00 0.00 0.00 30 1006.3
20260906033040 26 52 6.4 17.7 0.00 0.00 0.00 29 1006.5
20260906031514 26 33 11.3 17.7 0.00 0.00 0.00 29 1006.1
20260906030048 26 28 9.7 17.7 0.00 0.00 0.00 29 1005.9
20260906024532 26 5 9.7 17.7 0.00 0.00 0.00 28 1005.8
20260906023012 26 22 12.9 17.7 0.00 0.00 0.00 27 1005.5
20260906021553 27 211 8.0 17.7 0.00 0.00 0.00 27 1005.4
20260906020037 27 348 8.0 14.5 0.00 0.00 0.00 28 1005.4
20260906014518 28 320 6.4 11.3 0.00 0.00 0.00 27 1005.2
20260906013103 28 69 6.4 17.7 0.00 0.00 0.00 26 1005.2
20260906013008 28 50 6.4 17.7 0.00 0.00 0.00 26 1005.3
20260906011542 29 23 6.4 22.5 0.00 0.00 0.00 25 1005.1
20260906010020 30 55 4.8 17.7 0.00 0.00 0.00 25 1005.2
20260906004559 30 99 6.4 17.7 0.00 0.00 0.00 25 1005.2
20260906003040 30 66 8.0 17.7 0.00 0.00 0.00 25 1005.4
20260906001523 30 5 6.4 19.3 0.00 0.00 0.00 24 1005.4
20260906000100 31 35 6.4 17.7 0.00 0.00 0.00 24 1005.3
20260906000002 31 53 6.4 17.7 0.00 0.00 0.00 24 1005.2
20260905234544 31 13 3.2 12.9 0.00 0.00 0.00 25 1005.3
20260905233024 30 74 3.2 20.9 0.00 0.00 0.00 25 1005.4